When you browse on this site, cookies collect data to enhance your experience and personalize the content and advertising you see.
Visit our Privacy Policy to learn more. By continuing to use the site, you agree to this use of cookies and data.

Hourly Weather Burnie

Today, 14 July, Tuesday

Time Temperature Precipitation Wind Pressure Humidity
00:00 +3°C° 0 mm 3 mps 763 mmHg 92%
01:00 +3°C° 0 mm 3 mps 763 mmHg 92%
02:00 +3°C° 0 mm 3 mps 763 mmHg 92%
03:00 +3°C° 0 mm 3 mps 763 mmHg 91%
04:00 +3°C° 0 mm 3 mps 763 mmHg 91%
05:00 +3°C° 0 mm 3 mps 763 mmHg 91%
06:00 +3°C° 0 mm 3 mps 763 mmHg 91%
07:00 +3°C° 0 mm 3 mps 763 mmHg 91%
08:00 +5°C° 0 mm 2 mps 763 mmHg 84%
09:00 +7°C° 0 mm 2 mps 763 mmHg 77%
10:00 +9°C° 0 mm 2 mps 763 mmHg 70%
11:00 +10°C° 0 mm 2 mps 763 mmHg 65%
12:00 +12°C° 0 mm 2 mps 763 mmHg 61%
13:00 +13°C° 0 mm 2 mps 762 mmHg 56%
14:00 +13°C° 0 mm 2 mps 762 mmHg 62%
15:00 +12°C° 0 mm 2 mps 762 mmHg 67%
16:00 +11°C° 0 mm 1 mps 762 mmHg 72%
17:00 +9°C° 0 mm 2 mps 762 mmHg 79%
18:00 +7°C° 0 mm 2 mps 762 mmHg 86%
19:00 +5°C° 0 mm 2 mps 762 mmHg 93%
20:00 +4°C° 0 mm 3 mps 762 mmHg 94%
21:00 +4°C° 0 mm 4 mps 763 mmHg 94%
22:00 +3°C° 0 mm 4 mps 763 mmHg 95%
23:00 +3°C° 0 mm 4 mps 762 mmHg 95%

Tomorrow, 15 July, Wednesday

Time Temperature Precipitation Wind Pressure Humidity
00:00 +3°C° 0 mm 4 mps 762 mmHg 94%
01:00 +3°C° 0 mm 4 mps 762 mmHg 94%
02:00 +3°C° 0 mm 4 mps 761 mmHg 93%
03:00 +1°C° 0 mm 4 mps 761 mmHg 92%
04:00 +2°C° 0 mm 3 mps 761 mmHg 91%
05:00 +2°C° 0 mm 3 mps 761 mmHg 90%
06:00 +2°C° 0 mm 3 mps 761 mmHg 89%
07:00 +2°C° 0 mm 3 mps 761 mmHg 88%
08:00 +4°C° 0 mm 3 mps 761 mmHg 83%
09:00 +5°C° 0 mm 3 mps 761 mmHg 77%
10:00 +6°C° 0 mm 4 mps 761 mmHg 71%
11:00 +9°C° 0 mm 3 mps 760 mmHg 67%
12:00 +10°C° 0 mm 3 mps 760 mmHg 63%
13:00 +12°C° 0 mm 2 mps 759 mmHg 58%
14:00 +10°C° 0 mm 2 mps 759 mmHg 64%
15:00 +10°C° 0 mm 2 mps 759 mmHg 69%
16:00 +9°C° 0 mm 2 mps 759 mmHg 75%
17:00 +8°C° 0 mm 2 mps 759 mmHg 80%
18:00 +7°C° 0 mm 2 mps 759 mmHg 86%
19:00 +5°C° 0 mm 2 mps 759 mmHg 92%
20:00 +4°C° 0 mm 3 mps 759 mmHg 92%
21:00 +4°C° 0 mm 3 mps 759 mmHg 91%
22:00 +4°C° 0 mm 4 mps 759 mmHg 91%
23:00 +4°C° 0 mm 4 mps 759 mmHg 91%

Day after tomorrow, 16 July, Thursday

Time Temperature Precipitation Wind Pressure Humidity
00:00 +4°C° 0 mm 4 mps 759 mmHg 90%
01:00 +3°C° 0 mm 4 mps 759 mmHg 90%
02:00 +3°C° 0 mm 3 mps 759 mmHg 89%
03:00 +3°C° 0 mm 3 mps 758 mmHg 89%
04:00 +3°C° 0 mm 3 mps 758 mmHg 88%
05:00 +3°C° 0 mm 3 mps 758 mmHg 88%
06:00 +3°C° 0 mm 3 mps 758 mmHg 87%
07:00 +3°C° 0 mm 3 mps 759 mmHg 87%
08:00 +5°C° 0 mm 2 mps 759 mmHg 80%
09:00 +7°C° 0 mm 2 mps 759 mmHg 74%
10:00 +9°C° 0 mm 2 mps 759 mmHg 67%
11:00 +11°C° 0 mm 1 mps 759 mmHg 62%
12:00 +12°C° 0 mm 1 mps 758 mmHg 57%
13:00 +13°C° 0 mm 1 mps 758 mmHg 52%
14:00 +13°C° 0 mm 1 mps 758 mmHg 57%
15:00 +12°C° 0 mm 1 mps 758 mmHg 62%
16:00 +12°C° 0 mm 1 mps 758 mmHg 67%
17:00 +10°C° 0 mm 1 mps 758 mmHg 74%
18:00 +8°C° 0 mm 1 mps 758 mmHg 81%
19:00 +6°C° 0 mm 1 mps 758 mmHg 88%
20:00 +5°C° 0 mm 2 mps 759 mmHg 89%
21:00 +5°C° 0 mm 2 mps 759 mmHg 89%
22:00 +4°C° 0 mm 2 mps 759 mmHg 89%
23:00 +4°C° 0 mm 2 mps 759 mmHg 90%

17 July, Friday

Time Temperature Precipitation Wind Pressure Humidity
00:00 +4°C° 0 mm 2 mps 758 mmHg 90%
01:00 +4°C° 0 mm 2 mps 758 mmHg 90%
02:00 +4°C° 0 mm 2 mps 758 mmHg 91%
03:00 +4°C° 0 mm 2 mps 758 mmHg 91%
04:00 +4°C° 0 mm 2 mps 758 mmHg 92%
05:00 +3°C° 0 mm 2 mps 758 mmHg 92%
06:00 +3°C° 0 mm 2 mps 758 mmHg 92%
07:00 +3°C° 0 mm 2 mps 758 mmHg 93%
08:00 +5°C° 0 mm 2 mps 758 mmHg 85%
09:00 +8°C° 0 mm 1 mps 758 mmHg 78%
10:00 +10°C° 0 mm 1 mps 758 mmHg 71%
11:00 +10°C° 0 mm 1 mps 758 mmHg 70%
12:00 +11°C° 0 mm 1 mps 757 mmHg 70%
13:00 +12°C° 0 mm 1 mps 757 mmHg 69%
14:00 +11°C° 0 mm 1 mps 756 mmHg 74%
15:00 +10°C° 0 mm 1 mps 756 mmHg 79%
16:00 +10°C° 0 mm 1 mps 756 mmHg 84%
17:00 +9°C° 0 mm 1 mps 756 mmHg 88%
18:00 +8°C° 0 mm 1 mps 756 mmHg 92%
19:00 +7°C° 0 mm 1 mps 756 mmHg 96%
20:00 +6°C° 0 mm 2 mps 756 mmHg 96%
21:00 +6°C° 0 mm 2 mps 755 mmHg 97%
22:00 +6°C° 0 mm 2 mps 755 mmHg 97%
23:00 +6°C° 0 mm 2 mps 755 mmHg 96%

18 July, Saturday

Time Temperature Precipitation Wind Pressure Humidity
00:00 +7°C° 0 mm 2 mps 754 mmHg 96%
01:00 +7°C° 0 mm 2 mps 754 mmHg 95%
02:00 +7°C° 0 mm 2 mps 754 mmHg 95%
03:00 +7°C° 0 mm 2 mps 753 mmHg 95%
04:00 +8°C° 0 mm 2 mps 752 mmHg 96%
05:00 +8°C° 0 mm 3 mps 752 mmHg 96%
06:00 +8°C° 0 mm 3 mps 752 mmHg 96%
07:00 +8°C° 0 mm 3 mps 752 mmHg 96%
08:00 +7°C° 0 mm 4 mps 751 mmHg 95%
09:00 +8°C° 0 mm 4 mps 751 mmHg 93%
10:00 +8°C° 0 mm 4 mps 751 mmHg 92%
11:00 +8°C° 0 mm 4 mps 750 mmHg 92%
12:00 +9°C° 0 mm 5 mps 749 mmHg 92%
13:00 +9°C° 0 mm 5 mps 748 mmHg 92%
14:00 +9°C° 0 mm 5 mps 748 mmHg 92%
15:00 +8°C° 0 mm 5 mps 747 mmHg 92%
16:00 +8°C° 0 mm 5 mps 746 mmHg 92%
17:00 +8°C° 0 mm 5 mps 746 mmHg 92%
18:00 +8°C° 0 mm 6 mps 746 mmHg 92%
19:00 +8°C° 0 mm 6 mps 746 mmHg 92%
20:00 +8°C° 0.8 mm 7 mps 745 mmHg 93%
21:00 +7°C° 0.8 mm 8 mps 744 mmHg 94%
22:00 +7°C° 0.8 mm 9 mps 744 mmHg 96%
23:00 +7°C° 0.6 mm 9 mps 743 mmHg 95%

19 July, Sunday

Time Temperature Precipitation Wind Pressure Humidity
00:00 +8°C° 0.6 mm 9 mps 743 mmHg 94%
01:00 +8°C° 0.6 mm 9 mps 742 mmHg 93%
02:00 +7°C° 0 mm 8 mps 742 mmHg 93%
03:00 +5°C° 0 mm 7 mps 742 mmHg 94%
04:00 +5°C° 0 mm 5 mps 742 mmHg 94%
05:00 +5°C° 0.1 mm 6 mps 742 mmHg 94%
06:00 +5°C° 0.1 mm 6 mps 741 mmHg 94%
07:00 +5°C° 0.1 mm 7 mps 741 mmHg 94%
08:00 +6°C° 1.6 mm 7 mps 741 mmHg 91%
09:00 +6°C° 1.6 mm 8 mps 741 mmHg 89%
10:00 +6°C° 1.6 mm 8 mps 741 mmHg 86%
11:00 +6°C° 0.3 mm 8 mps 741 mmHg 86%
12:00 +6°C° 0.3 mm 9 mps 742 mmHg 86%
13:00 +6°C° 0.3 mm 9 mps 742 mmHg 87%
14:00 +6°C° 0.1 mm 9 mps 742 mmHg 85%
15:00 +5°C° 0.1 mm 9 mps 742 mmHg 84%
16:00 +5°C° 0.1 mm 9 mps 742 mmHg 82%
17:00 +5°C° 0.1 mm 9 mps 743 mmHg 82%
18:00 +5°C° 0.1 mm 9 mps 743 mmHg 82%
19:00 +5°C° 0.1 mm 8 mps 744 mmHg 83%
20:00 +4°C° 0.1 mm 8 mps 745 mmHg 84%
21:00 +4°C° 0.1 mm 8 mps 745 mmHg 85%
22:00 +4°C° 0.1 mm 8 mps 746 mmHg 87%
23:00 +2°C° 0 mm 8 mps 746 mmHg 85%
Show more